Tracking 19827 objects as of 22-Aug-2019
HD Live streaming from Space Station
objects crossing your sky now

FENGYUN 1C DEB

Track FENGYUN 1C DEB now!
10-day predictions


NORAD ID: 31655
Int'l Code: 1999-025CBM
Perigee: 837.4 km
Apogee: 1,334.6 km
Inclination: 99.3 °
Period: 106.8 minutes
Semi major axis: 7457 km
RCS: 0.0098 m2 (small)
Launch date: May 10, 1999
Source: People's Republic of China (PRC)
Launch site: Taiyaun Space Center, China (TSC)

Note: This is SATELLITE DEBRIS
aabbcc
Your satellite tracking list
Your tracking list is empty




NASA's NSSDC Master Catalog

Two Line Element Set (TLE):
1 31655U 99025CBM 19231.94142675 +.00001589 +00000-0 +18742-2 0  9996
2 31655 099.3028 283.9299 0333370 220.9081 266.3185 13.48200595611596
Source of the keplerian elements: AFSPC